星链-6303 (STARLINK-6303 )
导读
STARLINK-6303是美国太空探索技术公司(SpaceX)发射的星链(Starlink)卫星,于2023年5月4日发射入轨,属于星链互联网星座的一员。它为全球范围内提供低延迟、高速率的宽带互联网服务,尤其覆盖偏远地区,目前已在轨道运行近3年,持续为星链网络的全球覆盖能力提供支撑。
Basic Information
目录编号:
56393
目录名称:
STARLINK-6303
国际标识:
2023-061V
轨道中心:
EARTH
卫星名称:
星链-6303
卫星全名:
星链-6303 (STARLINK-6303 )
卫星状态:
在轨 (已飞行1226 天)
发射日期:
2023-05-04 UTC
国别 :
美国
(US)
星等 :
--
This satellite is enrolled in the Space Conjunction Data Service (SCDS) and the current flight risk assessment level is: High Risk
Orbit Information
| 数据来源 | 国际轨道数据 |
| 星历时间: | 2026-09-11T14:48:29+0800 12小时前 查看轨道信息 |
| 半长轴: | 6861.193km |
| 偏心率: | 0.000137 |
| 轨道倾角: | 43.002° |
| 近地点辐角 | 267.154° |
| 升交点赤经 | 229.779° |
| 平近点角 | 92.915° |
| 近地点: | 482.116km |
| 远地点: | 483.996km |
| 周期: | 94.267分钟 |
| 每日圈数: | 15.275777 |
Detailed Information
固有亮度:
5
最大亮度:
2.5
卫星平台:
Starlink v1.5
覆盖范围:
全球
运营商:
太空探索技术公司
运营商所在国:
美国
制造商(研发单位):
太空探索技术公司
制造商所在国:
美国
使用方式:
暂无
Satellite Introduction
星链(Starlink)计划是由太空探索技术公司(SpaceX)提出的一个巨型低轨卫星互联网星座项目,计划在2019年至2024年间在太空搭建由约1.2万颗卫星组成的“星链”网络,其中1584颗将部署在地球上空550千米处的近地轨道,并从2020年开始工作。该卫星仍在工作。
2D Orbit Map
3D Orbit Map
Orbit Altitude Analysis Chart
Orbit Inclination Analysis Chart
Orbit Comprehensive Analysis Chart
View Comprehensive ChartConjunction Data List
| Event ID | Objects | TCA | Miss Dist (km) | Collision Risk Probability | Collision Risk Index (CRI) | Action |
|---|---|---|---|---|---|---|
| CDM_260911-192505-639305-967623 |
STARLINK-6303
(56393)
STARLINK-31884
(59676) | 2026-09-11T 19:25:57+0000 |
0.535 km
远距离 | 1.394087E-4 高风险 | 0.78 | |
| CDM_260912-084605-639305-967622 |
STARLINK-6303
(56393)
STARLINK-31884
(59676) | 2026-09-12T 08:46:14+0000 |
0.833 km
远距离 | 3.865059E-5 中风险 | 0.67 | |
| CDM_260913-121605-639306-661621 |
STARLINK-6303
(56393)
STARLINK-35391
(66616) | 2026-09-13T 12:16:28+0000 |
0.859 km
远距离 | 3.398959E-5 中风险 | 0.66 | |
| CDM_260914-013605-639306-661621 |
STARLINK-6303
(56393)
STARLINK-35391
(66616) | 2026-09-14T 01:36:46+0000 |
1.579 km
极远距离 | 4.313279E-6 低风险 | 0.48 | |
| CDM_260913-135005-639306-661621 |
STARLINK-6303
(56393)
STARLINK-35391
(66616) | 2026-09-13T 13:50:37+0000 |
1.682 km
极远距离 | 3.561741E-6 低风险 | 0.46 | |
| CDM_260913-044505-639306-668122 |
STARLINK-6303
(56393)
OBJECT R
(66681) | 2026-09-13T 04:45:08+0000 |
2.264 km
极远距离 | 1.921081E-6 低风险 | 0.41 | |
| CDM_260914-004805-639306-800821 |
STARLINK-6303
(56393)
STARLINK-36911
(68008) | 2026-09-14T 00:48:29+0000 |
2.192 km
极远距离 | 1.806451E-6 低风险 | 0.4 | |
| CDM_260914-031005-639306-661621 |
STARLINK-6303
(56393)
STARLINK-35391
(66616) | 2026-09-14T 03:10:55+0000 |
2.235 km
极远距离 | 1.711038E-6 低风险 | 0.4 | |
| CDM_260911-175105-639305-967623 |
STARLINK-6303
(56393)
STARLINK-31884
(59676) | 2026-09-11T 17:51:47+0000 |
2.323 km
极远距离 | 1.615005E-6 低风险 | 0.39 | |
| CDM_260914-022205-639306-800821 |
STARLINK-6303
(56393)
STARLINK-36911
(68008) | 2026-09-14T 02:22:38+0000 |
2.470 km
极远距离 | 1.425409E-6 低风险 | 0.38 |
Miss Distance Evolution Trend with All Objects
Collision Probability Evolution Trend with All Objects

